Вернуться в каталог

FENGYUN 1C DEB

АктивенSSO
NORAD 30297·DEBRIS·🇨🇳 China

Запущен May 10, 1999 с Taiyuan Satellite Launch Center

Loading…

Ближайшие Пролёты (ближайшие 24 часа)

TLE

СвежийSource: Space-Track

Эпоха: Sep 14, 2026, 08:29 UTC

1 30297U 99025ZJ  26257.35353324  .00009024  00000-0  18488-2 0  9992
2 30297  98.8335 216.0579 0361968  35.9445 114.5073 14.27010076990773

Отслеживайте FENGYUN 1C DEB в реальном времени с AllMySat

Download on the App Store